FW5697 Weather Reports


Display with metric or nautical units.
time (UTC)temp
F
wind
direction
speed
MPH
gust
MPH
rain 1hr
in
rain 24hr
in
rain mn
in
humidity
%
barometer
mb
20260905134534 80 0 0.0 0.0 0.00 0.00 0.00 87 1014.7
20260905133035 78 0 0.0 0.0 0.00 0.00 0.00 93 1014.6
20260905131551 76 0 0.0 0.0 0.00 0.00 0.00 95 1014.8
20260905130040 75 0 0.0 0.0 0.00 0.00 0.00 97 1014.8
20260905124536 74 0 0.0 0.0 0.00 0.00 0.00 97 1014.8
20260905123037 73 0 0.0 0.0 0.00 0.00 0.00 97 1014.9
20260905121537 73 0 0.0 0.0 0.00 0.00 0.00 97 1014.6
20260905120039 72 0 0.0 0.0 0.00 0.00 0.00 97 1014.6
20260905114536 72 0 0.0 0.0 0.00 0.00 0.00 97 1014.7
20260905113035 72 0 0.0 0.0 0.00 0.00 0.00 96 1014.6
20260905111557 72 0 0.0 0.0 0.00 0.00 0.00 96 1014.4
20260905110035 72 0 0.0 0.0 0.00 0.00 0.00 96 1014.3
20260905104536 72 0 0.0 0.0 0.00 0.00 0.00 96 1014.1
20260905103034 72 0 0.0 0.0 0.00 0.00 0.00 96 1014.0
20260905101535 72 0 0.0 0.0 0.00 0.00 0.00 96 1014.1
20260905100036 72 0 0.0 0.0 0.00 0.00 0.00 96 1014.1
20260905094536 73 0 0.0 0.0 0.00 0.00 0.00 96 1014.0
20260905093036 73 0 0.0 0.0 0.00 0.00 0.00 96 1014.0
20260905091534 73 0 0.0 0.0 0.00 0.00 0.00 96 1014.0
20260905090035 73 0 0.0 0.0 0.00 0.00 0.00 95 1014.0
20260905084536 73 0 0.0 0.0 0.00 0.00 0.00 95 1014.0
20260905083032 73 0 0.0 0.0 0.00 0.00 0.00 95 1013.9
20260905081534 74 0 0.0 0.0 0.00 0.00 0.00 95 1014.0
20260905080035 74 0 0.0 0.0 0.00 0.00 0.00 94 1013.9
20260905074533 74 0 0.0 0.0 0.00 0.00 0.00 94 1013.8
20260905073053 74 0 0.0 0.0 0.00 0.00 0.00 94 1013.8
20260905071542 75 0 0.0 0.0 0.00 0.00 0.00 93 1013.6
20260905070037 75 0 0.0 0.0 0.00 0.00 0.00 94 1013.5
20260905064536 75 0 0.0 0.0 0.00 0.00 0.00 93 1013.8
20260905063036 75 0 0.0 0.0 0.00 0.00 0.00 92 1014.1
20260905061537 75 0 0.0 0.0 0.00 0.00 0.00 92 1014.2
20260905060037 76 0 0.0 0.0 0.00 0.00 0.00 92 1014.3
20260905054542 76 0 0.0 0.0 0.00 0.00 0.00 91 1014.6
20260905053040 76 0 0.0 0.0 0.00 0.00 0.00 90 1014.6
20260905051535 77 0 0.0 0.0 0.00 0.00 0.00 90 1014.6
20260905050031 77 0 0.0 0.0 0.00 0.00 0.00 90 1014.6
20260905044533 76 0 0.0 0.0 0.00 0.00 0.00 90 1014.7
20260905043035 76 0 0.0 0.0 0.00 0.00 0.00 90 1014.7
20260905041533 77 0 0.0 0.0 0.00 0.00 0.00 88 1014.7
20260905040037 77 0 0.0 0.0 0.00 0.00 0.00 88 1014.7
20260905034535 77 0 0.0 0.0 0.00 0.00 0.00 86 1014.9
20260905033048 77 0 0.0 0.0 0.00 0.00 0.00 85 1014.7
20260905031543 77 0 0.0 0.0 0.00 0.00 0.00 87 1014.9
20260905030032 77 0 0.0 0.0 0.00 0.00 0.00 87 1014.9
20260905024534 77 0 0.0 0.0 0.00 0.00 0.00 86 1015.0
20260905023041 78 0 0.0 0.0 0.00 0.00 0.00 86 1015.2
20260905021538 78 0 0.0 0.0 0.00 0.00 0.00 85 1015.2
20260905020036 79 0 0.0 0.0 0.00 0.00 0.00 84 1015.2
20260905014535 79 0 0.0 0.0 0.00 0.00 0.00 83 1015.5
20260905013036 80 0 0.0 0.0 0.00 0.00 0.00 81 1015.4
20260905011535 81 0 0.0 0.0 0.00 0.00 0.00 79 1015.2
20260905010034 82 0 0.0 0.0 0.00 0.00 0.00 78 1015.1
20260905004537 82 0 0.0 0.0 0.00 0.00 0.00 75 1014.7
20260905003036 83 0 0.0 0.0 0.00 0.00 0.00 74 1014.6
20260905001535 84 0 0.0 0.0 0.00 0.00 0.00 73 1014.5
20260905000034 85 0 0.0 0.0 0.00 0.00 0.00 68 1014.2
20260904234534 87 0 0.0 0.0 0.00 0.00 0.00 64 1014.2
20260904233035 89 0 0.0 0.0 0.00 0.00 0.00 60 1014.1
20260904231539 91 0 0.0 0.0 0.00 0.00 0.00 57 1014.0
20260904230037 92 0 0.0 0.0 0.00 0.00 0.00 54 1013.9
20260904224551 93 0 0.0 0.0 0.00 0.00 0.00 52 1013.9
20260904223037 94 0 0.0 0.0 0.00 0.00 0.00 50 1014.1
20260904221536 94 0 0.0 0.0 0.00 0.00 0.00 52 1014.1
20260904220038 95 0 0.0 1.0 0.00 0.00 0.00 50 1014.2
20260904214542 95 0 0.0 0.0 0.00 0.00 0.00 50 1014.1
20260904213037 95 0 0.0 0.0 0.00 0.00 0.00 52 1014.1
20260904211536 94 0 0.0 3.0 0.00 0.00 0.00 52 1014.1
20260904210043 94 0 0.0 3.0 0.00 0.00 0.00 52 1014.2
20260904204535 95 0 0.0 2.0 0.00 0.00 0.00 54 1014.1
20260904203032 94 0 0.0 3.0 0.00 0.00 0.00 52 1014.4
20260904201537 94 0 0.0 5.0 0.00 0.00 0.00 54 1014.6
20260904200035 93 0 0.0 2.0 0.00 0.00 0.00 56 1014.9
20260904194540 92 62 0.0 3.0 0.00 0.00 0.00 56 1014.9
20260904193033 93 316 1.0 4.0 0.00 0.00 0.00 55 1015.2
20260904191532 92 0 0.0 2.0 0.00 0.00 0.00 57 1015.4
20260904190034 91 53 0.0 2.0 0.00 0.00 0.00 59 1015.6
20260904184533 92 26 0.0 6.0 0.00 0.00 0.00 57 1015.9
20260904183034 91 33 1.0 4.0 0.00 0.00 0.00 58 1016.0
20260904181534 91 82 0.0 3.0 0.00 0.00 0.00 60 1016.2
20260904180035 91 0 0.0 2.0 0.00 0.00 0.00 62 1016.3
20260904174533 90 44 0.0 2.0 0.00 0.00 0.00 63 1016.4
20260904173039 90 19 1.0 3.0 0.00 0.00 0.00 64 1016.8
20260904171537 89 0 0.0 4.0 0.00 0.00 0.00 64 1016.8
20260904170035 89 0 0.0 2.0 0.00 0.00 0.00 66 1016.9
20260904164536 88 0 0.0 3.0 0.00 0.00 0.00 68 1017.2
20260904163035 87 88 0.0 2.0 0.00 0.00 0.00 68 1017.2
20260904161535 87 142 0.0 2.0 0.00 0.00 0.00 69 1017.5
20260904160034 87 140 0.0 2.0 0.00 0.00 0.00 70 1017.7
20260904154534 85 54 0.0 2.0 0.00 0.00 0.00 73 1017.7
20260904153036 84 0 0.0 2.0 0.00 0.00 0.00 77 1017.7
20260904151534 83 0 0.0 1.0 0.00 0.00 0.00 80 1017.8
20260904150056 81 0 0.0 2.0 0.00 0.00 0.00 81 1017.7
20260904144536 81 15 0.0 4.0 0.00 0.00 0.00 84 1017.6
20260904143036 79 0 0.0 0.0 0.00 0.00 0.00 86 1017.5
20260904141533 78 0 0.0 0.0 0.00 0.00 0.00 88 1017.5
20260904140038 78 0 0.0 0.0 0.00 0.00 0.00 91 1017.6